• Em Portugal
  • Lista de países
  • Para 7 dias
  • Temperatura da água
  • Mapas de satélite
  • Mapa do tempo
  • Widgets de tempo
  • user-avatar
    Iniciar Sessão

    Previsão horária em Serove

    Hoje, 26 Maio, Sábado

    Tempo Temperatura Precipitação Vento Pressão Humidade
    00:00 +19°C° 0 mm 1 m/s 668 mmHg 38%
    01:00 +19°C° 0 mm 1 m/s 668 mmHg 40%
    02:00 +19°C° 0 mm 1 m/s 668 mmHg 42%
    03:00 +18°C° 0 mm 1 m/s 668 mmHg 44%
    04:00 +18°C° 0 mm 1 m/s 668 mmHg 45%
    05:00 +18°C° 0 mm 1 m/s 668 mmHg 46%
    06:00 +18°C° 0 mm 1 m/s 669 mmHg 44%
    07:00 +19°C° 0 mm 1 m/s 669 mmHg 43%
    08:00 +21°C° 0 mm 1 m/s 670 mmHg 39%
    09:00 +23°C° 0 mm 1 m/s 670 mmHg 35%
    10:00 +25°C° 0 mm 2 m/s 671 mmHg 30%
    11:00 +27°C° 0 mm 3 m/s 671 mmHg 25%
    12:00 +27°C° 0 mm 3 m/s 671 mmHg 23%
    13:00 +28°C° 0 mm 3 m/s 670 mmHg 22%
    14:00 +29°C° 0 mm 3 m/s 670 mmHg 21%
    15:00 +28°C° 0 mm 3 m/s 670 mmHg 22%
    16:00 +27°C° 0 mm 3 m/s 669 mmHg 23%
    17:00 +27°C° 0 mm 3 m/s 669 mmHg 24%
    18:00 +25°C° 0 mm 3 m/s 669 mmHg 28%
    19:00 +22°C° 0 mm 3 m/s 669 mmHg 31%
    20:00 +21°C° 0 mm 2 m/s 669 mmHg 35%
    21:00 +20°C° 0 mm 2 m/s 670 mmHg 38%
    22:00 +19°C° 0 mm 2 m/s 670 mmHg 41%
    23:00 +19°C° 0 mm 2 m/s 670 mmHg 43%

    Amanhã, 27 Maio, Domingo

    Tempo Temperatura Precipitação Vento Pressão Humidade
    00:00 +18°C° 0 mm 2 m/s 670 mmHg 46%
    01:00 +18°C° 0 mm 2 m/s 670 mmHg 48%
    02:00 +17°C° 0 mm 2 m/s 670 mmHg 50%
    03:00 +17°C° 0 mm 2 m/s 670 mmHg 52%
    04:00 +17°C° 0 mm 2 m/s 670 mmHg 54%
    05:00 +16°C° 0 mm 2 m/s 670 mmHg 56%
    06:00 +17°C° 0 mm 2 m/s 670 mmHg 54%
    07:00 +18°C° 0 mm 3 m/s 671 mmHg 52%
    08:00 +18°C° 0 mm 3 m/s 671 mmHg 50%
    09:00 +21°C° 0 mm 3 m/s 672 mmHg 43%
    10:00 +24°C° 0 mm 3 m/s 672 mmHg 36%
    11:00 +27°C° 0 mm 4 m/s 673 mmHg 29%
    12:00 +27°C° 0 mm 3 m/s 672 mmHg 27%
    13:00 +28°C° 0 mm 3 m/s 672 mmHg 24%
    14:00 +28°C° 0 mm 3 m/s 671 mmHg 21%
    15:00 +28°C° 0 mm 3 m/s 671 mmHg 23%
    16:00 +27°C° 0 mm 3 m/s 671 mmHg 24%
    17:00 +26°C° 0 mm 3 m/s 671 mmHg 25%
    18:00 +25°C° 0 mm 3 m/s 671 mmHg 29%
    19:00 +22°C° 0 mm 3 m/s 671 mmHg 33%
    20:00 +20°C° 0 mm 3 m/s 671 mmHg 37%
    21:00 +20°C° 0 mm 3 m/s 671 mmHg 40%
    22:00 +19°C° 0 mm 3 m/s 671 mmHg 44%
    23:00 +18°C° 0 mm 3 m/s 672 mmHg 47%

    Depois de amanhã, 28 Maio, Segunda-feira

    Tempo Temperatura Precipitação Vento Pressão Humidade
    00:00 +18°C° 0 mm 3 m/s 671 mmHg 51%
    01:00 +17°C° 0 mm 3 m/s 671 mmHg 55%
    02:00 +17°C° 0 mm 3 m/s 671 mmHg 60%
    03:00 +16°C° 0 mm 3 m/s 671 mmHg 64%
    04:00 +16°C° 0 mm 3 m/s 671 mmHg 68%
    05:00 +15°C° 0 mm 2 m/s 670 mmHg 72%
    06:00 +16°C° 0 mm 3 m/s 671 mmHg 70%
    07:00 +16°C° 0 mm 3 m/s 671 mmHg 68%
    08:00 +17°C° 0 mm 3 m/s 672 mmHg 66%
    09:00 +20°C° 0 mm 3 m/s 672 mmHg 54%
    10:00 +22°C° 0 mm 3 m/s 673 mmHg 42%
    11:00 +26°C° 0 mm 3 m/s 674 mmHg 31%
    12:00 +27°C° 0 mm 3 m/s 673 mmHg 27%
    13:00 +27°C° 0 mm 3 m/s 672 mmHg 23%
    14:00 +28°C° 0 mm 3 m/s 672 mmHg 20%
    15:00 +27°C° 0 mm 3 m/s 671 mmHg 20%
    16:00 +27°C° 0 mm 2 m/s 671 mmHg 21%
    17:00 +26°C° 0 mm 2 m/s 670 mmHg 22%
    18:00 +24°C° 0 mm 2 m/s 670 mmHg 25%
    19:00 +22°C° 0 mm 3 m/s 670 mmHg 29%
    20:00 +20°C° 0 mm 3 m/s 670 mmHg 32%
    21:00 +19°C° 0 mm 3 m/s 670 mmHg 35%
    22:00 +18°C° 0 mm 3 m/s 670 mmHg 39%
    23:00 +18°C° 0 mm 3 m/s 670 mmHg 42%

    29 Maio, Terça-feira

    Tempo Temperatura Precipitação Vento Pressão Humidade
    00:00 +17°C° 0 mm 2 m/s 670 mmHg 45%
    01:00 +17°C° 0 mm 2 m/s 670 mmHg 47%
    02:00 +16°C° 0 mm 2 m/s 669 mmHg 50%
    03:00 +16°C° 0 mm 2 m/s 669 mmHg 51%
    04:00 +16°C° 0 mm 2 m/s 669 mmHg 52%
    05:00 +15°C° 0 mm 2 m/s 669 mmHg 53%
    06:00 +16°C° 0 mm 2 m/s 669 mmHg 51%
    07:00 +17°C° 0 mm 3 m/s 670 mmHg 48%
    08:00 +18°C° 0 mm 3 m/s 670 mmHg 46%
    09:00 +21°C° 0 mm 3 m/s 670 mmHg 39%
    10:00 +25°C° 0 mm 3 m/s 671 mmHg 32%
    11:00 +27°C° 0 mm 4 m/s 671 mmHg 25%
    12:00 +28°C° 0 mm 3 m/s 671 mmHg 23%
    13:00 +29°C° 0 mm 3 m/s 670 mmHg 21%
    14:00 +30°C° 0 mm 3 m/s 669 mmHg 19%
    15:00 +29°C° 0 mm 3 m/s 669 mmHg 20%
    16:00 +28°C° 0 mm 2 m/s 669 mmHg 21%
    17:00 +28°C° 0 mm 2 m/s 668 mmHg 22%
    18:00 +26°C° 0 mm 2 m/s 668 mmHg 24%
    19:00 +25°C° 0 mm 2 m/s 668 mmHg 26%
    20:00 +24°C° 0 mm 2 m/s 669 mmHg 28%
    21:00 +24°C° 0 mm 1 m/s 669 mmHg 30%
    22:00 +23°C° 0 mm 1 m/s 669 mmHg 31%
    23:00 +22°C° 0 mm 1 m/s 669 mmHg 33%

    30 Maio, Quarta-feira

    Tempo Temperatura Precipitação Vento Pressão Humidade
    00:00 +22°C° 0 mm 1 m/s 668 mmHg 35%
    01:00 +21°C° 0 mm 1 m/s 668 mmHg 36%
    02:00 +20°C° 0 mm 1 m/s 668 mmHg 38%
    03:00 +20°C° 0 mm 1 m/s 667 mmHg 40%
    04:00 +19°C° 0 mm 1 m/s 667 mmHg 41%
    05:00 +19°C° 0 mm 1 m/s 667 mmHg 42%
    06:00 +19°C° 0 mm 1 m/s 668 mmHg 41%
    07:00 +20°C° 0 mm 1 m/s 668 mmHg 39%
    08:00 +20°C° 0 mm 1 m/s 669 mmHg 38%
    09:00 +23°C° 0 mm 1 m/s 669 mmHg 34%
    10:00 +25°C° 0 mm 2 m/s 670 mmHg 30%
    11:00 +28°C° 0 mm 2 m/s 670 mmHg 26%
    12:00 +29°C° 0 mm 2 m/s 670 mmHg 23%
    13:00 +29°C° 0 mm 2 m/s 669 mmHg 21%
    14:00 +30°C° 0 mm 2 m/s 669 mmHg 19%
    15:00 +29°C° 0 mm 2 m/s 668 mmHg 20%
    16:00 +28°C° 0 mm 2 m/s 668 mmHg 22%
    17:00 +27°C° 0 mm 2 m/s 668 mmHg 23%
    18:00 +26°C° 0 mm 2 m/s 668 mmHg 25%
    19:00 +25°C° 0 mm 3 m/s 668 mmHg 28%
    20:00 +24°C° 0 mm 3 m/s 668 mmHg 30%
    21:00 +22°C° 0 mm 3 m/s 668 mmHg 35%
    22:00 +21°C° 0 mm 3 m/s 668 mmHg 41%
    23:00 +19°C° 0 mm 3 m/s 668 mmHg 46%

    31 Maio, Quinta-feira

    Tempo Temperatura Precipitação Vento Pressão Humidade
    00:00 +19°C° 0 mm 3 m/s 668 mmHg 50%
    01:00 +18°C° 0 mm 4 m/s 667 mmHg 53%
    02:00 +18°C° 0 mm 4 m/s 667 mmHg 56%
    03:00 +17°C° 0 mm 3 m/s 667 mmHg 58%
    04:00 +17°C° 0 mm 3 m/s 667 mmHg 59%
    05:00 +16°C° 0 mm 3 m/s 667 mmHg 60%
    06:00 +17°C° 0 mm 4 m/s 667 mmHg 56%
    07:00 +18°C° 0 mm 4 m/s 668 mmHg 53%
    08:00 +18°C° 0 mm 4 m/s 668 mmHg 49%
    09:00 +21°C° 0 mm 5 m/s 669 mmHg 42%
    10:00 +24°C° 0 mm 6 m/s 669 mmHg 35%
    11:00 +28°C° 0 mm 7 m/s 670 mmHg 28%
    12:00 +28°C° 0 mm 7 m/s 670 mmHg 26%
    13:00 +29°C° 0 mm 7 m/s 669 mmHg 25%
    14:00 +29°C° 0 mm 7 m/s 669 mmHg 24%
    15:00 +29°C° 0 mm 6 m/s 668 mmHg 24%
    16:00 +28°C° 0 mm 5 m/s 668 mmHg 24%
    17:00 +28°C° 0 mm 4 m/s 668 mmHg 25%
    18:00 +26°C° 0 mm 3 m/s 668 mmHg 26%
    19:00 +24°C° 0 mm 3 m/s 668 mmHg 28%
    20:00 +21°C° 0 mm 3 m/s 668 mmHg 29%
    21:00 +20°C° 0 mm 2 m/s 668 mmHg 27%
    22:00 +19°C° 0 mm 2 m/s 669 mmHg 25%
    23:00 +18°C° 0 mm 2 m/s 669 mmHg 23%
    Mostrar mais